SCP
0 0 0 0 0 0 0 0 0 0 0 0 0 0 0 0 0 0 0 0 0 0 0 0 0 0 0 0 0 0 0 0 0 0 0 0 0 0
0 0 0 0 0 0 0 0 0 0 0 0 0 0 0 0 0 0 0 0 0 0 0 0 0 0 0 0 0 0 0 0 0 0 0 0 0 0
0 0 0 0 0 0 0 0 0 0 0 0 0 0 0 0 0 0 0 0 0 0 0 0 0 0 0 0 0 0 0 0 0 0 0 0 0 0
0 0 0 0 0 0 0 0 0 0 0 0 0 0 0 0 0 0 0 0 0 0 0 0 0 0 0 0 0 0 0 0 0 0 0 0 0 0
0 0 0 0 0 0 0 0 0 0 0 0 0 0 0 0 0 0 0 0 0 0 0 0 0 0 0 0 0 0 0 0 0 0 0 0 0 0
0 0 0 0 0 0 0 0 0 0 0 0 0 0 0 0 0 0 0 0 0 0 0 0 0 0 0 0 0 0 0 0 0 0 0 0 0 0
0 0 0 0 0 0 0 0 0 0 0 0 0 0 0 0 0 0 0 0 0 0 0 0 0 0 0 0 0 0 0 0 0 0 0 0 0 0
0 0 0 0 0 0 0 0 0 0 0 0 0 0 0 0 0 0 0 0 0 0 0 0 0 0 0 0 0 0 0 0 0 0 0 0 0 0
0 0 0 0 0 0 0 0 0 0 0 0 0 0 0 0 0 0 0 0 0 0 0 0 0 0 0 0 0 0 0 0 0 0 0 0 0 0
0 0 0 0 0 0 0 0 0 0 0 0 0 0 0 0 0 0 0 0 0 0 0 0 0 0 0 0 0 0 0 0 0 0 0 0 0 0
0 0 0 0 0 0 0 0 0 0 0 0 0 0 0 0 0 0 0 0 0 0 0 0 0 0 0 0 0 0 0 0 0 0 0 0 0 0
0 0 0 0 0 0 0 0 0 0 0 0 0 0 0 0 0 0 0 0 0 0 0 0 0 0 0 0 0 0 0 0 0 0 0 0 0 0
0 0 0 0 0 0 0 0 0 0 0 0 0 0 0 0 0 0 0 0 0 0 0 0 0 0 0 0 0 0 0 0 0 0 0 0 0 0
0 0 0 0 0 0 0 0 0 0 0 0 0 0 0 0 0 0 0 0 0 0 0 0 0 0 0 0 0 0 0 0 0 0 0 0 0 0
0 0 0 0 0 0 0 0 0 0 0 0 0 0 0 0 0 0 0 0 0 0 0 0 0 0 0 0 0 0 0 0 0 0 0 0 0 0
0 0 0 0 0 0 0 0 0 0 0 0 0 0 0 0 0 0 0 0 0 0 0 0 0 0 0 0 0 0 0 0 0 0 0 0 0 0
0 0 0 0 0 0 0 0 0 0 0 0 0 0 0 0 0 0 0 0 0 0 0 0 0 0 0 0 0 0 0 0 0 0 0 0 0 0
0 0 0 0 0 0 0 0 0 0 0 0 0 0 0 0 0 0 0 0 0 0 0 0 0 0 0 0 0 0 0 0 0 0 0 0 0 0
0 0 0 0 0 0 0 0 0 0 0 0 0 0 0 0 0 0 0 0 0 0 0 0 0 0 0 0 0 0 0 0 0 0 0 0 0 0
0 0 0 0 0 0 0 0 0 0 0 0 0 0 0 0 0 0 0 0 0 0 0 0 0 0 0 0 0 0 0 0 0 0 0 0 0 0
0 0 0 0 0 0 0 0 0 0 0 0 0 0 0 0 0 0 0 0 0 0 0 0 0 0 0 0 0 0 0 0 0 0 0 0 0 0
0 0 0 0 0 0 0 0 0 0 0 0 0 0 0 0 0 0 0 0 0 0 0 0 0 0 0 0 0 0 0 0 0 0 0 0 0 0
0 0 0 0 0 0 0 0 0 0 0 0 0 0 0 0 0 0 0 0 0 0 0 0 0 0 0 0 0 0 0 0 0 0 0 0 0 0
Wind_Speed
3 3 3 3 3 3 3 3 3 7 9 5 3 3 4 4 9 7 7 14 17 16 16 16 15 16 17 17 16 17 17 16 16 16 16 17 18 18
2 3 3 3 3 3 3 3 3 5 8 6 6 7 7 7 11 8 7 15 15 16 16 16 16 16 16 16 16 16 15 16 16 16 17 17 16 14
3 3 4 4 4 3 3 3 3 4 8 9 7 7 7 8 8 6 7 6 8 15 16 16 16 16 16 16 14 14 15 15 15 15 16 15 14 14
4 4 5 4 5 4 3 4 4 4 6 10 9 7 8 7 8 8 8 7 6 12 16 16 16 15 15 14 14 13 14 14 13 13 14 12 12 13
4 4 5 4 6 4 4 4 4 5 4 7 9 7 7 6 8 8 8 6 7 9 12 13 14 14 13 13 13 13 13 12 11 12 12 11 12 13
4 4 4 5 6 5 5 5 5 5 5 6 7 7 7 6 6 7 8 6 6 7 8 10 12 13 13 13 13 12 11 10 9 9 10 10 10 11
3 4 5 7 8 7 5 5 5 5 5 6 7 7 7 7 6 6 8 8 7 4 6 6 6 5 7 10 11 11 10 9 8 8 9 8 8 8
4 4 5 6 8 10 11 10 8 6 6 6 7 8 9 8 7 7 7 8 7 4 5 6 5 5 5 5 9 10 8 8 9 9 8 7 6 7
4 4 5 5 7 6 8 9 8 10 10 7 8 9 9 8 8 8 7 7 7 6 5 6 4 5 5 6 11 9 8 9 9 9 8 7 7 7
4 4 5 5 6 7 5 6 6 6 8 6 6 7 8 8 7 7 7 7 6 4 3 5 5 5 5 5 9 9 9 9 9 8 8 8 8 7
4 4 4 5 9 10 6 6 7 6 8 10 11 10 13 13 9 5 5 5 6 5 2 3 4 4 4 4 5 9 10 10 9 9 9 9 8 7
3 4 6 7 9 9 5 5 6 7 7 7 8 8 7 8 10 5 4 4 4 4 3 3 3 4 4 3 3 3 5 7 9 9 9 9 8 5
3 3 4 8 10 10 8 4 7 8 5 5 5 5 5 5 5 5 4 3 4 4 3 3 3 3 3 4 3 3 3 3 4 5 7 9 8 6
4 3 4 9 9 9 7 7 9 7 3 4 4 4 5 5 5 5 5 3 3 4 4 3 3 3 3 3 4 3 3 3 3 4 3 6 7 8
3 6 8 8 8 6 7 8 7 4 3 3 4 5 5 5 5 4 4 3 3 3 3 3 3 3 2 2 3 3 3 4 3 3 3 3 3 3
3 5 7 7 6 6 6 5 4 3 3 3 4 4 4 4 4 4 3 4 4 4 4 4 3 2 2 2 2 3 3 3 4 4 3 3 3 2
4 3 3 4 4 4 4 4 3 4 4 4 4 4 4 4 4 4 3 3 3 4 5 4 3 2 1 2 2 2 3 2 3 4 3 3 3 3
4 2 3 3 4 4 4 4 4 4 4 4 4 4 4 4 4 4 3 3 3 3 4 4 4 3 2 2 2 2 2 2 3 3 3 3 4 4
3 2 3 3 4 4 4 4 4 4 4 3 3 4 4 4 4 4 4 4 3 3 3 3 3 3 3 4 4 3 2 2 3 3 3 3 3 4
2 3 3 3 4 4 4 4 4 4 4 3 3 3 3 3 4 4 4 4 3 3 3 3 3 3 2 2 3 3 4 2 2 3 3 2 2 3
3 3 3 3 4 4 4 4 4 4 4 3 3 3 3 3 3 3 4 5 4 3 4 4 4 4 2 1 1 3 4 4 3 1 2 2 3 3
3 3 4 4 4 4 4 4 4 3 3 3 3 3 3 3 3 4 3 3 3 2 3 3 4 3 2 2 2 2 3 4 5 6 4 2 1 2
3 4 4 4 4 4 3 4 4 3 3 3 3 3 3 3 3 3 3 3 2 2 3 3 3 2 2 1 2 2 3 4 3 5 5 7 6 4
Wind_Direction
257 258 262 267 259 256 256 253 272 302 304 295 302 301 307 308 308 309 302 302 307 306 306 306 305 304 303 301 297 293 289 287 284 282 281 280 282 280
263 264 269 273 271 262 258 259 248 261 286 292 297 305 310 310 313 313 308 311 310 308 307 307 305 303 303 302 296 292 290 287 284 281 279 280 280 279
276 273 274 278 278 271 268 267 263 258 278 292 295 303 305 308 311 308 305 304 302 305 306 307 305 303 303 305 300 297 295 292 286 284 283 279 277 279
277 278 281 289 283 276 272 272 269 261 269 290 300 304 303 305 306 308 309 307 299 302 306 306 306 306 307 309 306 303 301 296 289 285 284 280 280 282
268 274 281 287 285 282 281 277 276 280 273 283 294 300 301 304 308 306 305 303 304 308 309 310 311 312 311 311 312 312 314 306 293 287 284 282 284 284
267 269 275 273 274 278 280 275 282 288 287 286 291 298 299 300 302 311 315 316 311 310 310 313 313 315 316 315 317 316 321 321 314 302 296 294 290 287
282 280 280 287 290 291 292 287 288 289 293 293 294 300 304 311 312 311 310 313 309 300 310 313 313 312 316 317 317 317 320 326 328 320 316 312 309 303
291 293 291 289 296 302 303 302 298 295 297 296 299 302 303 305 307 307 310 313 312 316 315 309 314 310 311 312 317 319 324 331 334 334 333 338 335 327
292 299 304 303 308 301 300 305 303 302 300 297 296 298 302 305 306 303 304 303 296 303 308 303 315 310 311 319 327 327 333 340 344 344 344 342 337 332
288 288 293 301 304 311 310 309 306 305 305 304 293 297 301 302 297 294 295 298 292 295 309 299 312 310 316 324 336 344 346 346 349 349 350 351 348 342
293 293 297 298 307 318 320 313 314 316 320 319 319 320 322 322 320 317 312 313 311 311 326 304 305 311 314 323 339 349 349 349 352 353 353 353 350 343
303 299 307 313 316 322 319 314 315 318 321 324 328 332 328 325 329 321 307 305 307 307 332 327 309 324 323 320 332 342 343 348 351 350 351 353 349 344
306 305 303 315 319 322 325 315 311 319 319 323 326 328 333 336 334 329 321 306 303 295 309 319 307 314 299 306 320 332 342 341 343 342 348 352 352 351
303 302 305 316 321 326 330 329 331 336 333 329 330 333 336 335 330 327 323 320 310 296 303 306 291 300 300 304 311 326 341 343 346 342 341 344 350 354
310 321 327 331 333 335 337 341 346 345 333 334 334 330 325 317 318 321 325 329 331 328 328 324 311 305 299 295 305 318 330 336 341 342 340 342 343 347
328 334 343 349 351 345 344 347 347 337 334 329 325 321 322 327 332 331 331 339 347 346 345 346 337 327 320 311 308 321 330 323 335 346 345 344 351 359
336 345 351 350 357 355 349 348 350 349 350 340 334 331 333 338 336 336 338 344 350 343 340 341 339 338 340 338 338 334 338 337 334 348 1 4 3 3
359 356 352 350 346 343 340 341 344 345 343 339 334 334 336 336 334 337 342 344 346 341 336 335 340 352 9 11 5 337 354 348 343 356 9 17 4 0
18 0 347 341 337 335 333 333 332 332 333 335 334 338 338 334 333 340 342 342 343 341 337 339 351 4 14 356 342 2 5 349 355 10 24 26 359 342
9 349 340 335 332 331 331 329 327 332 338 339 337 337 336 332 334 339 340 338 338 340 344 353 360 0 1 324 320 335 351 351 17 19 12 14 4 342
347 341 335 330 325 326 327 326 327 330 333 335 334 332 331 331 331 335 336 338 344 348 351 346 327 324 300 343 20 3 5 12 8 353 354 10 16 24
338 333 331 328 325 324 325 326 328 329 332 335 333 330 328 323 322 328 331 335 341 344 341 332 334 352 24 52 44 11 5 9 16 16 11 358 25 29
331 328 328 326 324 323 323 323 322 321 325 327 327 322 320 318 318 319 320 327 336 345 348 346 355 16 25 33 45 33 20 11 18 26 31 30 40 38